[[{"header":{"parameterUnit":"m.s-1","parameterCategory":1,"la1":30.2991,"la2":30.254,"lo1":-89.0895,"lo2":-89.0444,"dy":0.0017,"dx":0.0017,"nx":28,"ny":28,"refTime":"2025-07-08T09:00:00:Z","depth":0,"parameterNumber":2,"parameterNumberName":"U-component_of_WINDS"},"data":[0,0,0,0,0,0,0,0,0,0,0,0,0,0,0,0,0,0,0,0,0,0,0,0,0,0,0,0,0,0,0,0,0,0,0,0,0,0,0,0,0,0,0,0,0,0,0,0,0,0,0,0,0,0,0,0,0,0,3.6626,3.6628,0,3.6877,3.688,3.6882,3.6911,3.6909,3.6906,3.6904,3.7164,3.7173,3.7182,0,0,0,0,0,0,0,0,0,0,0,0,0,3.6172,3.618,3.6625,3.6628,3.6632,3.6876,3.688,3.6883,3.6912,3.6909,3.6906,3.6903,3.7161,3.7172,3.7183,0,0,0,0,0,0,0,0,0,0,0,0,0,3.6391,3.6183,3.6625,3.6675,3.6682,3.6876,3.688,3.6884,3.6912,3.6909,3.6905,3.6901,3.7158,3.7171,3.7185,3.7346,0,0,3.7227,3.7233,0,0,0,0,0,0,0,0,3.6378,3.6407,3.6665,3.6672,3.668,3.6859,3.6815,3.7039,3.6913,3.6825,3.6904,3.69,3.7066,3.7087,3.7143,3.7358,3.7369,3.7228,3.7237,3.7243,3.7247,0,0,0,0,0,0,0,3.6363,3.6397,3.6725,3.6668,3.6678,3.6686,3.6713,3.6858,3.6964,3.6833,3.6835,3.6864,3.7069,3.7129,3.7149,3.7373,3.7228,3.724,3.7249,3.7254,3.7731,3.7735,0,0,0,0,0,0,3.6338,3.6384,3.6717,3.6732,3.6517,3.6697,3.6727,3.6805,3.6962,3.6982,3.6867,3.6865,3.7107,3.7133,3.7158,3.7355,3.7243,3.7256,3.7264,3.7726,3.7732,3.7736,0,0,0,0,0,0,3.6328,3.6368,3.6707,3.6559,3.6603,3.6709,3.6796,3.6812,3.6872,3.6988,3.7008,3.6909,3.7105,3.7139,3.7298,3.7364,3.7262,3.7275,3.7721,3.7728,3.7734,3.7751,0,0,0,0,0,0,3.6315,3.6364,3.6426,3.656,3.661,3.6842,3.6801,3.682,3.6895,3.6895,3.7032,3.7052,3.7105,3.7277,3.7312,3.7382,3.7285,3.7716,3.7724,3.7732,3.7745,3.7757,3.7768,0,0,0,0,0,3.6299,3.6422,3.6429,3.6469,3.669,3.6846,3.6875,3.6933,3.6901,3.6964,3.7038,3.7047,3.7352,3.7293,3.7333,3.7408,3.7712,3.7722,3.7731,3.774,3.7755,3.7768,0,0,0,0,0,0,3.6295,3.6441,3.645,3.662,3.672,3.6851,3.6932,3.6947,3.706,3.7054,3.7122,3.7153,3.7309,3.7375,3.7307,3.7571,3.7529,3.7547,3.7522,3.7537,3.7548,3.7529,3.7297,0,0,0,0,0,3.6313,3.6427,3.6549,3.6687,3.6737,3.6826,3.6896,3.6931,3.7038,3.7081,3.7168,3.7272,3.7391,3.7468,3.7584,3.7755,3.7784,3.7826,3.7837,3.7846,3.786,3.7953,3.7973,3.7768,3.7768,3.7768,0,0,3.6354,3.6447,3.6515,3.6689,3.677,3.6886,3.6861,3.6986,3.7073,3.7101,3.7256,3.7323,3.7443,3.7608,3.7686,3.7668,3.7923,3.7858,3.7864,3.7874,3.7965,3.7985,3.8002,3.7775,3.7773,3.7772,0,0,3.6486,3.6569,3.6692,3.6774,3.6897,3.6955,3.6984,3.7113,3.7157,3.7314,3.7336,3.7441,3.7645,3.7729,3.7799,3.796,3.7972,3.7996,3.8055,3.8145,3.8161,3.8176,3.8232,3.8251,3.801,3.8011,3.8011,0,3.6521,3.6696,3.6754,3.6877,3.6952,3.6981,3.7105,3.7183,3.7338,3.7389,3.7367,3.7621,3.7705,3.7889,3.7928,3.7984,3.8019,3.798,3.8154,3.817,3.8184,3.8238,3.8259,3.8013,3.8012,3.8012,3.8012,0,3.6731,3.6853,3.6937,3.7084,3.7169,3.7293,3.7369,3.7448,3.7476,3.7536,3.7694,3.7794,3.793,3.7977,3.8007,3.8165,3.815,3.814,3.8099,3.8204,3.8256,3.8278,3.8015,3.8015,3.8014,3.8014,0,0,3.687,3.7045,3.7075,3.7141,3.7278,3.7373,3.7497,3.7628,3.7694,3.78,3.7905,3.8076,3.8067,3.8146,3.8185,3.8264,3.8383,3.8245,3.8248,3.8265,3.8561,3.8566,3.8589,3.8391,3.8395,3.8399,3.855,0,3.7016,3.7237,3.7291,3.748,3.7592,3.7619,3.7728,3.7823,3.7882,3.7986,3.8052,3.8171,3.8151,3.8199,3.8278,3.8351,3.8443,3.8341,3.8489,3.8494,3.8457,3.8617,3.8624,3.8762,3.8571,3.8575,3.8577,0,3.7218,3.7325,3.7524,3.7644,3.7693,3.7789,3.7912,3.8011,3.812,3.8157,3.8243,3.8274,3.8404,3.8357,3.8536,3.8466,3.8529,3.8574,3.8581,3.8596,3.8541,3.8635,3.8808,3.8828,3.861,3.8608,3.8605,0,3.7296,3.7491,3.7634,3.769,3.7834,3.79,3.7964,3.8069,3.8143,3.8251,3.83,3.8423,3.849,3.8584,3.8646,3.8606,3.882,3.8778,3.8854,3.8852,3.8897,3.8893,3.9081,3.894,3.894,3.894,3.8939,0,3.7453,3.7574,3.7671,3.7759,3.7894,3.7955,3.8088,3.8152,3.8244,3.8345,3.8378,3.8472,3.855,3.8654,3.8704,3.8844,3.8875,3.8908,3.892,3.8905,3.89,3.8947,3.8938,3.8945,3.8944,3.8943,3.8942,0,3.7564,3.7634,3.7792,3.7914,3.7947,3.8041,3.8146,3.8233,3.8292,3.8419,3.8453,3.8546,3.8671,3.8742,3.8901,3.8934,3.9089,3.9097,3.9051,3.9056,3.9127,3.9119,3.9351,3.9383,3.9222,3.9223,3.9224,0,3.7659,3.7752,3.7883,3.7952,3.8016,3.8127,3.8202,3.8266,3.8343,3.8472,3.8543,3.8669,3.8774,3.8972,3.9054,3.9174,3.9184,3.9257,3.9203,3.9184,3.9183,3.9176,3.9185,3.9266,3.9268,3.9269,3.927,0,3.7821,3.785,3.7957,3.8075,3.8163,3.826,3.8357,3.8411,3.8491,3.8576,3.8703,3.8783,3.8943,3.9067,3.9194,3.926,3.9278,3.9286,3.931,3.9295,3.9264,3.928,3.9075,3.928,3.9279,3.9279,3.9278,3.9278,3.7926,3.8009,3.8113,3.823,3.8308,3.8397,3.8483,3.8552,3.8658,3.8792,3.8823,3.8956,3.906,3.9232,3.93,3.9405,3.9393,3.9427,3.9436,3.9443,3.9444,3.9247,3.9429,3.9429,3.9428,3.9428,3.9428,0,3.8088,3.8156,3.8263,3.8394,3.8486,3.8493,3.86,3.8676,3.8792,3.8887,3.8988,3.9133,3.9253,3.9343,3.9466,3.9533,3.9544,3.9563,3.9558,3.9572,3.945,3.9416,3.9551,3.9551,3.9551,3.9551,3.9551,3.9551,3.8183,3.8322,3.8363,3.8541,3.8608,3.8737,3.8797,3.8878,3.8954,3.9113,3.9212,3.927,3.9363,3.9492,3.9603,3.9626,3.9669,3.9687,3.9711,3.9595,3.9581,3.9569,3.9537,3.9696,3.9696,3.9825,3.9826,3.9827]},{"header":{"parameterUnit":"m.s-1","parameterCategory":1,"la1":30.2991,"la2":30.254,"lo1":-89.0895,"lo2":-89.0444,"dy":0.0017,"dx":0.0017,"nx":28,"ny":28,"refTime":"2025-07-08T09:00:00:Z","depth":0,"parameterNumber":3,"parameterNumberName":"V-component_of_WINDS"},"data":[0,0,0,0,0,0,0,0,0,0,0,0,0,0,0,0,0,0,0,0,0,0,0,0,0,0,0,0,0,0,0,0,0,0,0,0,0,0,0,0,0,0,0,0,0,0,0,0,0,0,0,0,0,0,0,0,0,0,1.9513,1.9513,0,1.9497,1.9497,1.9497,1.9493,1.9493,1.9493,1.9493,1.9476,1.9475,1.9475,0,0,0,0,0,0,0,0,0,0,0,0,0,1.9538,1.9537,1.9513,1.9513,1.9513,1.9497,1.9497,1.9497,1.9493,1.9493,1.9493,1.9493,1.9476,1.9475,1.9475,0,0,0,0,0,0,0,0,0,0,0,0,0,1.9525,1.9537,1.9513,1.9509,1.9508,1.9497,1.9497,1.9497,1.9493,1.9493,1.9493,1.9493,1.9476,1.9475,1.9475,1.9466,0,0,1.9472,1.9472,0,0,0,0,0,0,0,0,1.9525,1.9524,1.951,1.9509,1.9508,1.9497,1.9499,1.9487,1.9493,1.9498,1.9493,1.9493,1.9483,1.9481,1.9478,1.9466,1.9465,1.9472,1.9471,1.9471,1.9471,0,0,0,0,0,0,0,1.9526,1.9525,1.9507,1.9509,1.9509,1.9507,1.9505,1.9497,1.949,1.9498,1.9498,1.9496,1.9482,1.9479,1.9478,1.9465,1.9472,1.9471,1.9471,1.947,1.9442,1.9442,0,0,0,0,0,0,1.9528,1.9525,1.9507,1.9506,1.9518,1.9506,1.9504,1.9501,1.949,1.9489,1.9496,1.9496,1.948,1.9478,1.9477,1.9465,1.9471,1.947,1.947,1.9442,1.9442,1.9442,0,0,0,0,0,0,1.9529,1.9527,1.9508,1.9516,1.9513,1.9506,1.9501,1.95,1.9497,1.9488,1.9487,1.9494,1.948,1.9478,1.9469,1.9465,1.947,1.9469,1.9443,1.9442,1.9442,1.9443,0,0,0,0,0,0,1.953,1.9527,1.9525,1.9516,1.9513,1.9501,1.9501,1.95,1.9495,1.9495,1.9486,1.9484,1.948,1.947,1.9468,1.9464,1.9469,1.9443,1.9443,1.9442,1.9443,1.9442,1.9442,0,0,0,0,0,1.953,1.9526,1.9525,1.9522,1.951,1.9501,1.9499,1.9494,1.9495,1.9492,1.9486,1.9485,1.9465,1.9469,1.9467,1.9462,1.9443,1.9443,1.9442,1.9443,1.9442,1.9442,0,0,0,0,0,0,1.9535,1.9525,1.9523,1.9516,1.9509,1.95,1.9496,1.9494,1.9487,1.9487,1.9481,1.9479,1.9469,1.9465,1.9469,1.9452,1.9454,1.9453,1.9456,1.9455,1.9454,1.9456,1.9468,0,0,0,0,0,1.9535,1.9529,1.952,1.9514,1.9511,1.9504,1.95,1.9496,1.9489,1.9486,1.948,1.9473,1.9464,1.946,1.9452,1.9442,1.9439,1.9438,1.9437,1.9437,1.9436,1.9428,1.9427,1.944,1.944,1.944,0,0,1.9535,1.9529,1.9525,1.9515,1.9509,1.9502,1.9502,1.9495,1.9489,1.9485,1.9476,1.947,1.9462,1.9451,1.9446,1.9447,1.9431,1.9436,1.9436,1.9435,1.9427,1.9426,1.9425,1.944,1.944,1.944,0,0,1.9531,1.9527,1.952,1.9514,1.9506,1.9501,1.9499,1.949,1.9486,1.9476,1.9473,1.9465,1.9452,1.9445,1.944,1.9431,1.9429,1.9429,1.9426,1.9418,1.9417,1.9416,1.9412,1.941,1.9428,1.9428,1.9428,0,1.9533,1.9523,1.9517,1.951,1.9504,1.95,1.9493,1.9487,1.9476,1.9472,1.9473,1.9455,1.9449,1.9436,1.9433,1.943,1.9427,1.943,1.9418,1.9417,1.9416,1.9412,1.941,1.9428,1.9428,1.9428,1.9428,0,1.9524,1.9516,1.9512,1.9501,1.9495,1.9488,1.948,1.9475,1.9471,1.9466,1.9455,1.9447,1.9437,1.9433,1.943,1.9419,1.942,1.9419,1.9421,1.9415,1.941,1.9409,1.9428,1.9428,1.9428,1.9428,0,0,1.9524,1.9509,1.9507,1.9501,1.949,1.9484,1.9475,1.9465,1.946,1.9452,1.9443,1.9431,1.943,1.9424,1.942,1.9414,1.9405,1.9414,1.9413,1.9411,1.939,1.939,1.9388,1.9403,1.9403,1.9402,1.939,0,1.9518,1.9504,1.9498,1.9485,1.9477,1.9472,1.9464,1.9456,1.945,1.9441,1.9434,1.9425,1.9425,1.9421,1.9415,1.9407,1.94,1.9408,1.9394,1.9394,1.9396,1.9386,1.9387,1.9376,1.9389,1.9389,1.9388,0,1.9511,1.9502,1.9488,1.9476,1.9473,1.9466,1.9455,1.9447,1.9437,1.9433,1.9425,1.942,1.941,1.9412,1.9396,1.9401,1.9395,1.939,1.939,1.9388,1.9391,1.9383,1.9372,1.937,1.9386,1.9386,1.9386,0,1.9511,1.9495,1.9485,1.948,1.9466,1.9461,1.9455,1.9445,1.9438,1.9428,1.9423,1.9412,1.9406,1.9396,1.9389,1.9391,1.9373,1.9375,1.9368,1.9368,1.9365,1.9365,1.9352,1.9362,1.9362,1.9362,1.9362,0,1.9505,1.9497,1.9485,1.9478,1.9468,1.946,1.945,1.9443,1.9434,1.9425,1.9419,1.9411,1.9401,1.9391,1.9385,1.9372,1.9369,1.9365,1.9363,1.9365,1.9366,1.9361,1.9361,1.9361,1.9361,1.9361,1.9362,0,1.9504,1.9495,1.9483,1.947,1.9467,1.946,1.9448,1.9441,1.9434,1.9422,1.9419,1.9408,1.9395,1.9387,1.9371,1.9366,1.9352,1.9351,1.9356,1.9355,1.9348,1.9348,1.9331,1.9328,1.934,1.934,1.934,0,1.9501,1.9494,1.948,1.9473,1.9467,1.9457,1.945,1.9441,1.9433,1.942,1.9413,1.9401,1.939,1.937,1.936,1.9347,1.9345,1.934,1.9343,1.9345,1.9344,1.9344,1.9343,1.9339,1.9339,1.9339,1.9339,0,1.9495,1.9491,1.9481,1.9469,1.946,1.9451,1.9441,1.9435,1.9425,1.9416,1.9403,1.9395,1.9378,1.9364,1.935,1.9343,1.9338,1.9338,1.9335,1.9337,1.934,1.9337,1.9353,1.9338,1.9339,1.9339,1.9339,1.9339,1.9492,1.9485,1.9474,1.9462,1.9453,1.9444,1.9436,1.9427,1.9416,1.9401,1.9397,1.9383,1.937,1.935,1.9342,1.9331,1.9331,1.9328,1.9327,1.9326,1.9325,1.9342,1.9328,1.9328,1.9328,1.9328,1.9328,0,1.9486,1.9478,1.9467,1.9453,1.9443,1.944,1.9428,1.942,1.9408,1.9396,1.9385,1.9369,1.9355,1.9344,1.9329,1.9322,1.9319,1.9318,1.9318,1.9316,1.9327,1.933,1.932,1.932,1.932,1.932,1.932,1.932,1.9482,1.9469,1.9463,1.9445,1.9437,1.9423,1.9416,1.9406,1.9397,1.9379,1.9368,1.936,1.9348,1.9332,1.9319,1.9315,1.931,1.9309,1.9305,1.9315,1.9316,1.9317,1.932,1.9308,1.9308,1.9296,1.9296,1.9295]}]]